Weather History for Joplin, MO

Change the Weather History Date:

Thursday, January 17, 2013

  Actual Average Record
Temperature  
Mean Temperature 37 °F 35 °F  
Max Temperature 46 °F 45 °F 68 °F (1952)
Min Temperature 27 °F 25 °F -7 °F (1978)
Degree Days  
Heating Degree Days 28 30  
Month to date heating degree days 521 510  
Since 1 July heating degree days 2018 2127  
Cooling Degree Days 0 0  
Month to date cooling degree days 0 0  
Year to date cooling degree days 0 0  
Moisture  
Dew Point 26 °F    
Average Humidity 71    
Maximum Humidity 92    
Minimum Humidity 49    
Precipitation  
Precipitation 0.00 in 0.06 in 1.47 in (2004)
Month to date precipitation 0.86 1.13  
Year to date precipitation 0.86 1.13  
Sea Level Pressure  
Sea Level Pressure 30.41 in    
Wind  
Wind Speed 6 mph (NNE)    
Max Wind Speed 17 mph    
Max Gust Speed 22 mph    
Visibility 10 miles    
Events      
T = Trace of Precipitation, MM = Missing Value Source: NWS Daily Summary

Daily Weather History Graph

Daily Weather History Graph

Search for Another Location

Airport:

Trip Planner

Search our weather history database for the weather conditions in past years. The results will help you decide how hot, cold, wet, or windy it might be!

Date:

Astronomy

Jan. 17, 2013 Rise Set
Actual Time 7:29 AM CST 5:26 PM CST
Civil Twilight 7:01 AM CST 5:55 PM CST
Nautical Twilight 6:29 AM CST 6:27 PM CST
Astronomical Twilight 5:58 AM CST 6:58 PM CST
Moon 10:47 AM CST (1/17) No Moon Set
Length of Visible Light 10h 53m
Length of Day
9h 57m
Waxing Crescent, 38% of the Moon is Illuminated
Jan 17
Waxing Crescent
Jan 18
First Quarter
Jan 26
Full
Feb 3
Last Quarter
Feb 10
New

Hourly Weather History & Observations

Time (CST) Temp. Windchill Dew Point Humidity Pressure Visibility Wind Dir Wind Speed Gust Speed Precip Events Conditions
12:53 AM 28.9 °F 22.8 °F 19.9 °F 69% 30.22 in 10.0 mi SW 5.8 mph - N/A   Clear
1:53 AM 28.0 °F - 19.0 °F 69% 30.24 in 10.0 mi Calm Calm - N/A   Clear
2:53 AM 28.0 °F - 19.0 °F 69% 30.27 in 10.0 mi Calm Calm - N/A   Clear
3:53 AM 30.9 °F - 19.9 °F 64% 30.28 in 10.0 mi Calm Calm - N/A   Clear
4:53 AM 30.9 °F 26.2 °F 23.0 °F 72% 30.30 in 10.0 mi North 4.6 mph - N/A   Clear
5:53 AM 28.4 °F 21.2 °F 24.8 °F 86% 30.31 in 10.0 mi North 6.9 mph - N/A   Clear
6:53 AM 28.0 °F 20.8 °F 26.1 °F 92% 30.36 in 10.0 mi NNW 6.9 mph - N/A   Clear
7:53 AM 32.0 °F 24.8 °F 28.0 °F 85% 30.39 in 10.0 mi North 8.1 mph - N/A   Clear
8:53 AM 35.1 °F 28.6 °F 30.0 °F 82% 30.43 in 10.0 mi North 8.1 mph - N/A   Clear
9:53 AM 37.9 °F 32.1 °F 30.9 °F 76% 30.44 in 10.0 mi North 8.1 mph - N/A   Clear
10:53 AM 39.9 °F 33.4 °F 30.0 °F 68% 30.46 in 10.0 mi North 10.4 mph - N/A   Clear
11:53 AM 42.1 °F 34.5 °F 28.9 °F 60% 30.46 in 10.0 mi NNW 15.0 mph - N/A   Clear
12:53 PM 43.0 °F 36.4 °F 28.9 °F 58% 30.45 in 10.0 mi North 12.7 mph - N/A   Clear
1:53 PM 46.0 °F 41.9 °F 28.0 °F 50% 30.44 in 10.0 mi NNE 8.1 mph - N/A   Clear
2:53 PM 45.0 °F 41.2 °F 28.0 °F 52% 30.45 in 10.0 mi North 6.9 mph - N/A   Clear
3:53 PM 45.0 °F 41.8 °F 28.9 °F 53% 30.45 in 10.0 mi North 5.8 mph - N/A   Clear
4:53 PM 43.0 °F 40.3 °F 27.0 °F 53% 30.46 in 10.0 mi North 4.6 mph - N/A   Clear
5:53 PM 39.9 °F 35.8 °F 26.1 °F 58% 30.48 in 10.0 mi NNE 5.8 mph - N/A   Clear
6:53 PM 34.0 °F - 26.1 °F 73% 30.49 in 10.0 mi Calm Calm - N/A   Clear
7:53 PM 32.0 °F 28.7 °F 26.1 °F 79% 30.50 in 10.0 mi South 3.5 mph - N/A   Clear
8:53 PM 28.9 °F 25.2 °F 25.0 °F 85% 30.50 in 10.0 mi SSE 3.5 mph - N/A   Clear
9:53 PM 28.9 °F 23.9 °F 25.0 °F 85% 30.49 in 10.0 mi SE 4.6 mph - N/A   Clear
10:53 PM 30.9 °F 25.2 °F 24.1 °F 76% 30.49 in 10.0 mi SSE 5.8 mph - N/A   Clear
11:53 PM 30.0 °F 24.1 °F 25.0 °F 82% 30.49 in 10.0 mi SSE 5.8 mph - N/A   Clear